Flag for India Weather past 2 weeks in Nagaur, Rajasthan, India

Now
77 °F

Fog.


Feels Like: 78 °F
Forecast: 78 / 88 °F
Wind: 5 mph from Southwest

Location: Jaipur / Sanganer

Current Time: Jul 31, 2015 at 5:33:28 AM

Latest Report: Jul 31, 2015 at 4:00 AM


Visibility: 2 mi

Pressure: 29.59 "Hg

Humidity: 89%

Dew point: 73 °F

Location of NagaurLocation

Historic Weather in Nagaur — Graph

°F

Nagaur temperature yesterday

Maximum temperature yesterday: 82 °F (at 2:00 PM)
Minimum temperature yesterday: 75 °F (at 12:00 AM)
Average temperature yesterday: 78 °F

Past Weeks' High & Low Weather Summary

 TemperatureHumidityPressure
High99 °F (Jul 16, 4:00 PM)100% (Jul 17, 4:00 PM)29.71 "Hg (Jul 17, 4:00 PM)
Low73 °F (Jul 27, 2:00 AM)39% (Jul 16, 4:00 PM)29.42 "Hg (Jul 26, 4:00 PM)
Average83 °F81%29.56 "Hg
* Reported Jul 16 4:00 AM — Jul 31 4:00 AM, Nagaur, Weather by CustomWeather, © 2015

Note: Actual official high and low records may vary slightly from our data, if they occured in-between our weather recording intervals... More about our weather records

Advertising

Nagaur weather history for previous 24 hours

 ConditionsComfort  
Time TempWeatherWind HumidityBarometerVisibility
4:00 AM
Fri, Jul 31
77 °FFog.5 mph89%29.59 "Hg2 mi
1:00 AM77 °FFog.5 mph89%29.62 "Hg2 mi
12:00 AM79 °FFog.6 mph84%29.62 "Hg2 mi
11:00 PM
Thu, Jul 30
79 °FFog.7 mph89%29.62 "Hg2 mi
10:00 PM79 °FPartly cloudy.8 mph84%29.62 "Hg2 mi
8:00 PM81 °FPartly cloudy.13 mph79%29.59 "Hg1 mi
7:00 PM81 °FBroken clouds.9 mph84%29.56 "Hg2 mi
5:00 PM81 °FPartly sunny.10 mph84%29.56 "Hg1 mi
4:00 PM81 °FPartly sunny.14 mph84%29.56 "Hg1 mi
3:00 PM82 °FPartly sunny.16 mph79%29.59 "Hg1 mi
2:00 PM82 °FPartly sunny.15 mph79%29.59 "Hg1 mi
1:00 PM81 °FMore clouds than sun.16 mph79%29.62 "Hg1 mi
12:00 PM81 °FDrizzle. More clouds than sun.13 mph84%29.62 "Hg1 mi
11:00 AM77 °FDrizzle. More clouds than sun.10 mph94%29.62 "Hg1 mi
9:00 AM75 °FDrizzle. More clouds than sun.7 mph100%29.59 "Hg1 mi
8:00 AM75 °FLight rain. More clouds than sun.7 mph100%29.59 "Hg1 mi
7:00 AM75 °FLight rain. More clouds than sun.7 mph100%29.56 "Hg1 mi
6:00 AM75 °FLight rain. Mostly cloudy.7 mph94%29.56 "Hg1 mi
5:00 AM75 °FFog.7 mph94%29.53 "Hg1 mi
Weather by CustomWeather, © 2015

See weather overviewHow to use our weather pages